Vertical_Velocity
-3 -0 -0 -1 16 9 1 4 1 0 2 -1 -2 3 5 5 5 10 -0 -1 -6 -1 2 1 4 6 6 7 14 6 -1 -3 3 -2 7 -1 1 4 1 -4 -2 1 -1 3 0 1 -5 3 -3
-1 -1 -2 3 11 4 4 1 0 0 0 -2 -2 0 1 -5 -3 2 1 -1 -6 1 5 -1 -0 4 5 2 12 2 3 2 1 4 1 3 -4 4 1 -1 -3 5 -3 1 -2 -4 -4 -2 -1
-1 -5 10 4 1 2 1 0 -0 -0 -3 -0 1 -6 -0 0 -2 0 -4 -1 2 2 1 18 4 -10 -3 38 -1 9 5 -2 -0 3 -1 -1 0 4 -1 -4 1 -4 -2 -1 -4 1 1 -1 4
-1 0 0 10 -1 -1 -0 -0 -0 -1 1 -1 1 1 -5 1 4 -0 -2 -0 -4 -5 2 6 6 -71 -5 -19 21 11 5 -0 4 3 2 1 -4 7 -7 1 3 -3 -3 1 -3 3 2 5 -4
-3 -2 4 3 -2 -0 -1 -1 -0 0 -0 0 -0 -2 0 -2 0 -2 0 -2 -3 -5 -0 -1 -11 0 1 -30 26 -4 12 -2 4 -5 2 0 -8 4 -0 1 1 -5 4 -2 -3 2 3 -0 2
10 1 5 0 -1 -1 -0 -0 0 0 -1 -1 2 1 3 -3 -2 -3 -2 -2 -1 1 -4 -3 12 14 19 -9 5 12 4 1 1 8 0 3 10 -13 -4 8 -4 5 -1 -2 1 2 -2 -0 2
7 4 -3 -0 -2 1 -1 -2 1 1 -0 -4 -4 2 4 3 -4 -3 -2 0 -2 -2 2 -2 -6 4 7 10 22 18 12 5 -5 2 4 14 -21 9 -6 -5 6 -1 -4 6 -9 -3 4 -0 -2
6 6 2 -2 -2 -6 1 -0 -1 3 -1 -6 -3 -1 0 -2 -3 -2 1 -1 -1 -2 -3 -4 7 4 -4 -1 -0 7 9 12 6 11 -3 4 4 -3 2 -2 -1 1 -3 -1 4 -6 5 -2 4
-2 8 -0 -6 3 -9 0 2 1 -4 2 -4 -3 -0 -0 -1 -3 -1 2 2 -1 -2 -0 5 8 -3 1 8 14 14 12 11 -5 8 -10 14 -9 4 9 4 -7 2 2 -0 -2 2 -2 6 -0
9 6 -6 -2 -2 -2 -1 1 -0 3 3 -3 -1 -0 -1 -1 -2 -0 2 -2 5 -3 -0 -2 -3 -8 0 -29 -8 25 7 16 9 -3 5 17 -1 3 6 -0 1 3 3 2 2 3 -2 -1 0
-4 -2 -4 -4 -2 1 -0 0 -2 2 -3 3 -0 2 -0 -2 -4 1 0 -1 0 1 -3 -1 9 5 -1 -0 0 0 19 14 13 8 1 23 7 2 1 1 2 4 5 2 7 1 -3 1 -0
12 -1 1 -5 0 2 -0 2 -1 3 -8 -4 -2 -1 1 0 -3 -3 1 -1 3 -0 1 0 -2 2 -2 -3 23 -5 4 14 -11 -3 -0 -8 -4 4 -1 1 -2 1 -2 1 -1 3 -0 0 4
9 -5 1 -2 0 -3 4 -3 -3 -5 -4 -3 1 0 0 1 -2 -5 3 -0 -2 0 -0 -3 3 2 1 -5 -1 -6 -4 -3 -4 3 13 2 -0 -3 -6 2 1 -3 1 -4 -1 -0 2 -1 -2
-1 1 -4 0 -2 0 8 -7 7 -10 -2 1 -0 1 2 1 -4 -1 -3 3 -1 1 -3 -0 -1 -0 2 1 2 0 2 4 1 -1 1 -0 -1 1 12 -10 4 -4 2 1 1 -2 -2 5 -7
-2 8 2 -2 -6 -5 4 2 -3 -2 -3 1 -1 -0 1 1 -2 -4 1 -3 -1 -3 1 -1 -6 -11 -4 2 6 3 -1 -1 -4 -5 -4 4 3 6 -3 -5 3 -7 8 1 2 -2 9 -2 -1
8 10 6 -7 1 -4 10 -11 -1 -3 -1 -1 -0 -1 0 0 -2 -4 1 1 4 1 -2 -2 2 3 13 6 -4 5 -0 -1 -3 2 0 4 3 0 -1 2 -0 6 -1 2 0 2 -3 5 0
5 -1 2 -1 -1 1 8 -5 1 -2 1 1 -1 -1 -1 1 -0 -3 -2 1 -2 -1 0 3 2 -1 3 6 4 3 -0 -8 2 -2 5 1 2 -17 4 -1 0 2 -2 3 -3 -1 6 -2 3
-5 4 -0 -2 3 4 2 -5 -5 1 1 -0 -0 -1 -1 -1 -2 -1 -3 -0 -1 0 -1 -2 -1 1 4 -3 8 4 8 4 -2 2 3 5 -9 -1 1 2 1 -3 -1 -5 6 -2 4 6 -2
3 4 0 -4 0 6 -3 -1 -5 -2 1 1 -1 1 -1 -2 -1 -1 -3 0 -1 -0 -1 -0 -1 -7 0 0 -4 -2 -9 -1 -1 -3 2 1 -2 -16 1 6 6 -3 -1 1 13 -1 6 -2 0
3 2 -6 -4 0 11 -1 -7 -4 -0 -3 0 2 -1 -0 3 1 -1 -3 -1 -1 0 1 2 -4 2 -1 2 0 2 5 8 5 1 -5 -1 0 5 -1 2 -4 -0 -3 10 -1 -3 -3 -0 2
-1 1 -2 0 -1 -1 7 -5 1 -6 3 1 -1 0 -0 -1 -2 -0 -3 -2 -1 -2 0 3 -4 -3 4 2 13 13 6 11 5 12 -6 -9 0 4 3 1 3 5 1 1 -3 4 1 3 -0
7 -4 2 2 7 -1 3 -8 -2 -2 -4 1 -2 0 -1 -0 2 0 -1 -3 -3 -3 -3 1 1 -2 -1 -3 -0 -8 -1 -6 -6 -2 8 4 11 -0 3 -1 3 -9 -4 -4 -2 3 10 3 8
-21 3 -0 1 2 12 -5 13 -19 2 -1 -3 -2 0 -1 -1 -2 -1 -2 -1 -1 1 -3 -1 0 0 -3 -2 -0 -0 0 5 3 -4 -9 4 8 6 2 -13 -3 10 -5 3 0 13 -9 -7 1
-2 5 3 2 3 10 -11 10 -9 0 -5 -2 -1 -0 6 -1 -1 -0 1 1 -1 -1 -2 -1 -1 -2 -2 -5 -6 -1 -0 -1 -4 -0 1 -6 -8 -9 -5 -8 -5 -0 -3 0 9 -8 -0 -2 -1
12 8 4 9 9 -7 -1 10 -16 -1 -2 2 -1 -2 1 0 1 -1 -2 -3 -1 -3 -4 -2 -0 -3 -1 -2 -3 -6 -2 1 -3 -3 -9 -4 -2 -8 -10 -14 -5 5 -13 4 -3 -5 9 -4 -8
-8 -5 -3 -4 0 -5 2 -3 -19 -2 -0 -2 -1 -1 0 -1 1 -1 -2 1 -1 1 1 -3 -4 -1 -3 -1 -0 -5 -4 -1 -0 -2 -0 -1 -6 -13 0 -6 -9 -7 -7 -1 -10 10 6 -6 2
-11 12 -13 10 0 6 -4 0 0 1 -0 -0 -1 -0 -1 2 1 1 -1 -4 -1 -1 -1 1 -0 -0 -1 -1 -3 -2 -5 -9 -4 -2 -4 -5 -2 -1 0 1 2 -0 -5 7 3 11 -4 -1 1
1 -9 8 5 4 1 -2 -1 -4 2 -1 -2 -0 -1 0 1 -1 2 1 0 2 -1 4 3 2 1 2 2 -1 -2 1 -2 -6 -5 -1 -1 -0 1 -1 -3 -2 1 2 -0 5 2 2 -2 -1
10 5 5 1 4 0 0 -8 -2 -3 -2 -0 0 1 0 0 2 -0 0 0 3 3 -4 -0 0 0 -0 -0 4 2 -0 4 6 -3 -6 -7 0 -1 -2 -0 4 2 1 1 0 -1 -5 -2 2
-2 -6 1 9 -5 -1 2 -15 0 1 1 1 -2 1 -1 1 3 2 1 -0 -1 4 1 -3 0 -2 1 8 -1 -1 3 1 -1 -4 -2 1 -2 2 4 2 -1 -0 0 -3 -6 -5 -0 5 0
Height
1516 1516 1516 1518 1513 1501 1496 1497 1501 1500 1500 1503 1504 1504 1499 1498 1496 1497 1495 1494 1496 1497 1498 1499 1500 1501 1504 1506 1507 1508 1513 1519 1522 1526 1528 1530 1532 1533 1537 1539 1544 1548 1550 1551 1553 1554 1556 1558 1560
1515 1517 1518 1514 1505 1497 1491 1497 1498 1497 1500 1504 1504 1503 1501 1498 1499 1500 1498 1494 1495 1498 1499 1499 1499 1503 1505 1507 1509 1511 1513 1517 1523 1526 1529 1531 1534 1535 1538 1541 1546 1548 1551 1553 1554 1555 1557 1559 1561
1514 1516 1515 1505 1498 1494 1495 1495 1495 1498 1502 1503 1501 1502 1500 1498 1500 1500 1497 1495 1496 1499 1502 1501 1505 1508 1508 1509 1511 1512 1513 1516 1522 1525 1529 1531 1535 1537 1538 1544 1547 1550 1553 1555 1555 1556 1559 1561 1562
1515 1517 1515 1503 1493 1494 1494 1493 1497 1497 1499 1501 1500 1497 1500 1499 1499 1497 1496 1496 1497 1497 1499 1501 1502 1506 1512 1502 1508 1513 1513 1517 1521 1524 1528 1532 1535 1538 1538 1546 1547 1550 1554 1556 1556 1559 1560 1563 1564
1513 1512 1502 1497 1493 1494 1495 1497 1498 1496 1497 1498 1500 1493 1498 1498 1497 1495 1494 1495 1496 1495 1498 1497 1500 1506 1507 1504 1506 1511 1514 1516 1519 1525 1528 1532 1535 1539 1540 1547 1548 1551 1553 1557 1558 1561 1563 1565 1566
1508 1508 1500 1492 1490 1493 1495 1497 1497 1495 1495 1498 1498 1496 1496 1496 1496 1494 1493 1493 1492 1494 1496 1497 1500 1506 1507 1506 1507 1509 1513 1515 1520 1525 1528 1530 1535 1539 1544 1547 1551 1552 1554 1559 1560 1564 1565 1566 1567
1503 1500 1493 1490 1489 1492 1492 1497 1496 1494 1493 1492 1495 1493 1494 1495 1492 1492 1491 1491 1490 1492 1494 1496 1497 1502 1503 1507 1508 1511 1511 1514 1520 1523 1528 1531 1536 1540 1544 1549 1553 1553 1558 1561 1563 1566 1567 1568 1570
1503 1499 1493 1490 1489 1488 1492 1494 1495 1494 1490 1493 1494 1489 1489 1492 1491 1490 1489 1489 1490 1491 1493 1495 1498 1502 1503 1507 1509 1512 1513 1514 1518 1521 1525 1528 1537 1540 1545 1550 1553 1557 1560 1562 1565 1568 1569 1571 1573
1504 1496 1490 1485 1489 1486 1489 1490 1493 1493 1492 1492 1491 1490 1490 1488 1489 1489 1487 1488 1490 1491 1491 1493 1496 1499 1501 1505 1508 1510 1512 1514 1516 1522 1526 1528 1536 1543 1548 1550 1555 1559 1562 1564 1567 1569 1571 1573 1574
1498 1489 1483 1482 1484 1485 1487 1491 1491 1491 1485 1487 1488 1488 1485 1486 1487 1487 1487 1489 1489 1490 1491 1492 1496 1499 1501 1504 1500 1503 1508 1511 1512 1517 1524 1529 1536 1542 1548 1550 1557 1561 1564 1566 1569 1570 1574 1574 1575
1491 1484 1480 1486 1488 1488 1486 1485 1488 1486 1481 1479 1482 1484 1484 1484 1486 1485 1487 1488 1488 1488 1488 1490 1491 1493 1493 1488 1490 1499 1504 1504 1508 1518 1522 1529 1536 1541 1546 1551 1558 1562 1566 1567 1570 1572 1575 1578 1579
1490 1485 1484 1484 1487 1487 1485 1483 1483 1482 1480 1482 1481 1482 1482 1482 1484 1484 1485 1486 1487 1486 1486 1488 1489 1490 1492 1491 1486 1496 1498 1502 1507 1510 1522 1529 1535 1541 1545 1552 1557 1562 1567 1569 1571 1574 1577 1578 1580
1488 1481 1482 1484 1485 1485 1484 1482 1478 1476 1479 1480 1480 1479 1479 1480 1482 1482 1482 1483 1483 1484 1485 1486 1487 1488 1491 1493 1495 1498 1501 1504 1509 1514 1523 1529 1534 1541 1546 1552 1559 1563 1568 1571 1573 1574 1575 1577 1579
1480 1480 1480 1479 1480 1481 1481 1474 1477 1469 1474 1476 1478 1477 1478 1478 1479 1481 1480 1481 1480 1481 1482 1484 1486 1487 1490 1491 1494 1496 1499 1503 1510 1516 1524 1531 1535 1540 1545 1551 1557 1562 1568 1570 1573 1574 1576 1577 1580
1482 1480 1476 1475 1475 1474 1477 1469 1467 1467 1470 1473 1475 1475 1476 1477 1477 1478 1479 1478 1478 1479 1479 1482 1484 1486 1488 1490 1492 1497 1501 1506 1511 1518 1525 1532 1536 1540 1545 1551 1555 1561 1566 1568 1572 1573 1576 1576 1579
1479 1475 1473 1463 1467 1471 1474 1461 1457 1464 1467 1468 1470 1472 1474 1474 1475 1476 1477 1476 1477 1476 1478 1480 1482 1484 1485 1490 1493 1497 1503 1507 1513 1518 1524 1531 1537 1542 1546 1550 1555 1559 1562 1566 1569 1572 1574 1575 1578
1472 1465 1463 1465 1465 1465 1467 1455 1455 1461 1463 1462 1465 1468 1470 1472 1473 1473 1474 1474 1475 1475 1476 1478 1480 1484 1486 1490 1493 1498 1502 1508 1514 1519 1525 1531 1537 1541 1545 1549 1554 1557 1561 1565 1568 1572 1573 1573 1576
1462 1464 1461 1461 1457 1462 1459 1457 1450 1452 1457 1458 1459 1462 1465 1467 1469 1470 1471 1471 1472 1473 1474 1476 1479 1481 1485 1491 1494 1497 1502 1507 1513 1519 1525 1530 1536 1541 1545 1548 1552 1556 1560 1564 1567 1570 1571 1574 1575
1454 1456 1458 1451 1457 1463 1457 1455 1451 1445 1451 1453 1455 1456 1458 1461 1466 1467 1468 1467 1468 1470 1471 1473 1476 1480 1483 1486 1491 1496 1501 1506 1511 1517 1523 1529 1535 1541 1543 1547 1550 1554 1559 1563 1565 1567 1570 1572 1574
1458 1458 1457 1452 1457 1462 1452 1449 1446 1443 1443 1444 1445 1450 1452 1456 1460 1462 1463 1465 1465 1466 1468 1470 1473 1477 1482 1486 1490 1495 1498 1502 1508 1513 1519 1525 1531 1536 1540 1545 1549 1553 1557 1560 1563 1565 1567 1570 1571
1455 1455 1455 1455 1452 1455 1453 1447 1440 1437 1437 1440 1441 1443 1446 1449 1453 1456 1458 1461 1463 1463 1465 1468 1470 1475 1480 1485 1489 1492 1495 1500 1504 1508 1516 1521 1528 1533 1537 1542 1547 1551 1554 1557 1561 1562 1564 1567 1568
1451 1447 1455 1455 1460 1457 1451 1449 1427 1431 1431 1429 1433 1437 1440 1443 1447 1451 1453 1456 1458 1459 1462 1465 1467 1471 1475 1480 1484 1489 1494 1496 1501 1506 1511 1517 1523 1528 1534 1539 1544 1547 1552 1554 1557 1559 1562 1562 1564
1445 1442 1451 1452 1452 1452 1451 1453 1428 1426 1430 1424 1423 1427 1433 1437 1440 1444 1447 1451 1454 1457 1457 1460 1463 1468 1471 1475 1479 1485 1491 1494 1497 1503 1508 1512 1518 1523 1528 1534 1539 1544 1547 1550 1553 1555 1557 1558 1561
1445 1449 1449 1450 1449 1457 1446 1445 1428 1418 1419 1418 1419 1421 1424 1431 1435 1440 1445 1449 1451 1454 1455 1456 1459 1463 1465 1470 1475 1480 1484 1489 1492 1497 1502 1509 1514 1519 1523 1529 1535 1538 1541 1545 1548 1549 1552 1554 1555
1443 1445 1449 1455 1454 1448 1428 1440 1424 1416 1416 1416 1417 1418 1422 1427 1429 1432 1437 1440 1445 1446 1449 1453 1456 1459 1462 1465 1470 1475 1480 1484 1487 1491 1496 1503 1506 1512 1517 1523 1527 1530 1534 1540 1542 1545 1546 1548 1550
1435 1434 1431 1446 1438 1430 1429 1433 1420 1412 1413 1416 1416 1417 1419 1422 1424 1425 1429 1433 1437 1441 1442 1446 1452 1455 1458 1460 1464 1469 1476 1479 1482 1485 1490 1495 1499 1503 1510 1515 1520 1524 1528 1533 1536 1538 1539 1541 1542
1433 1432 1428 1435 1437 1440 1419 1417 1413 1410 1412 1412 1412 1414 1415 1416 1418 1419 1423 1427 1431 1433 1435 1438 1445 1450 1452 1455 1459 1462 1466 1472 1477 1481 1485 1489 1494 1499 1504 1508 1512 1517 1521 1525 1528 1529 1531 1533 1535
1425 1423 1439 1436 1445 1440 1420 1420 1415 1411 1411 1406 1408 1409 1411 1413 1413 1414 1417 1421 1423 1428 1432 1434 1439 1443 1447 1450 1452 1455 1458 1461 1467 1474 1478 1482 1487 1492 1495 1499 1504 1509 1514 1517 1520 1521 1524 1526 1527
1424 1426 1422 1419 1424 1428 1428 1415 1401 1407 1406 1406 1407 1409 1410 1411 1411 1411 1412 1415 1418 1421 1425 1428 1432 1435 1438 1441 1446 1449 1452 1455 1458 1461 1467 1472 1479 1483 1486 1491 1496 1501 1505 1508 1511 1512 1515 1518 1518
1413 1419 1419 1425 1423 1421 1420 1417 1404 1406 1408 1411 1410 1408 1408 1408 1408 1409 1409 1410 1412 1415 1416 1419 1424 1428 1431 1435 1438 1442 1446 1450 1452 1453 1456 1462 1467 1475 1479 1485 1489 1493 1496 1498 1501 1504 1505 1507 1507